Overview Statistics Trail Chart Weather Telemetry Raw packets
 

This is the latest recevied weather packets stored in our database for station/object SP5MRF-11. If no packets are shown the sender has not sent any weather packets the latest 10 day(s).

<< 1 2 3 4 >>
Time Temp. Humidity Pressure Rain* Wind** Luminosity Snow
1788573757 17.78° C 65% 1007.6 hPa - - - -
1788572859 16.11° C 65% 1005.1 hPa - - - -
1788571957 17.78° C 65% 1007.3 hPa - - - -
1788571057 17.78° C 65% 1007.3 hPa - - - -
1788570156 17.78° C 64% 1007 hPa - - - -
1788569256 17.78° C 65% 1006.7 hPa - - - -
1788568356 17.78° C 65% 1006.5 hPa - - - -
1788567456 17.78° C 65% 1006.4 hPa - - - -
1788566623 18.33° C 64% 1006.6 hPa - - - -
1788566556 18.33° C 64% 1006.6 hPa - - - -
1788565675 18.33° C 64% 1006.4 hPa - - - -
1788564755 17.78° C 64% 1006.3 hPa - - - -
1788563883 18.33° C 64% 1006.1 hPa - - - -
1788562955 17.78° C 63% 1006.3 hPa - - - -
1788562055 17.78° C 63% 1006.2 hPa - - - -
1788561155 17.78° C 62% 1005.6 hPa - - - -
1788560264 17.78° C 63% 1005.9 hPa - - - -
1788559354 17.22° C 63% 1005.9 hPa - - - -
1788558454 17.22° C 63% 1005.9 hPa - - - -
1788557554 17.22° C 62% 1005.6 hPa - - - -
1788556654 17.22° C 63% 1005.5 hPa - - - -
1788555754 17.22° C 63% 1005.7 hPa - - - -
1788554854 17.78° C 62% 1005.4 hPa - - - -
1788553953 17.78° C 62% 1005.6 hPa - - - -
1788553063 18.33° C 61% 1005.2 hPa - - - -

* Rain since midnight (hover to see other rain measurements)
** Current wind speed in m/s (hover to see current wind gust speed)